Location: Castiglione Fibocchi
(43.5333°N, 11.7667°E)
Time: 14:23:32
(UTC+00:00)

Cosmos 1898 Rocket - Pass Details

Date: 15 August 2020
Orbit: 754 x 783 km, 74.0° (Epoch: 25 September)

Event Time Altitude Azimuth Distance (km) Brightness Sun altitude
Exits shadow 00:44:00 63° 354° (N) 853 3.8 -29.2°
Drops below altitude 10° 00:48:26 10° 18° (NNE) 2,296 6.9 -28.9°
Sets 00:50:48 0° 20° (NNE) 3,223 8.0 -28.7°
